Weather History for Scottsboro, AL

Change the Weather History Date:

Wednesday, December 4, 2013

  Actual Average (KHSV) Record (KHSV)
Temperature  
Mean Temperature 63 °F 47 °F  
Max Temperature 73 °F 56 °F 79 °F (1998)
Min Temperature 53 °F 37 °F 15 °F (1929)
Degree Days  
Heating Degree Days 2 19  
Month to date heating degree days 73  
Since 1 July heating degree days 600  
Cooling Degree Days 0 0  
Month to date cooling degree days 0  
Year to date cooling degree days 1949  
Growing Degree Days 13 (Base 50)    
Moisture  
Dew Point 59 °F    
Average Humidity 87    
Maximum Humidity 100    
Minimum Humidity 61    
Precipitation  
Precipitation 0.00 in 0.20 in 1.65 in (1923)
Month to date precipitation 0.78  
Year to date precipitation 49.35  
Snow  
Snow 0.00 in - - ()
Month to date snowfall  
Since 1 July snowfall  
Snow Depth -    
Sea Level Pressure  
Sea Level Pressure 29.91 in    
Wind  
Wind Speed 3 mph (SW)    
Max Wind Speed 14 mph    
Max Gust Speed 23 mph    
Visibility 7 miles    
Events Fog    
T = Trace of Precipitation, MM = Missing Value Source: NWS Daily Summary

Daily Weather History Graph

Daily Weather History Graph

Search for Another Location

Airport:

Trip Planner

Search our weather history database for the weather conditions in past years. The results will help you decide how hot, cold, wet, or windy it might be!

Date:

Astronomy

Dec. 04, 2013 Rise Set
Actual Time 6:35 AM CST 4:32 PM CST
Civil Twilight 6:07 AM CST 5:00 PM CST
Nautical Twilight 5:36 AM CST 5:31 PM CST
Astronomical Twilight 5:06 AM CST 6:02 PM CST
Moon 8:04 AM CST (12/4) 6:40 PM CST (12/4)
Length of Visible Light 10h 52m
Length of Day
9h 57m
Waxing Crescent, 4% of the Moon is Illuminated
Dec 4
Waxing Crescent
Dec 9
First Quarter
Dec 17
Full
Dec 25
Last Quarter
Jan 1
New

Hourly Weather History & Observations

Time (CST) Temp. Dew Point Humidity Pressure Visibility Wind Dir Wind Speed Gust Speed Precip Events Conditions
12:15 AM 53.6 °F 53.6 °F 100% 29.87 in 1.5 mi Calm Calm - N/A   Overcast
12:35 AM 53.6 °F 53.6 °F 100% 29.87 in 1.5 mi Calm Calm - N/A   Overcast
12:55 AM 53.6 °F 53.6 °F 100% 29.87 in 1.8 mi Calm Calm - N/A   Overcast
1:15 AM 53.6 °F 53.6 °F 100% 29.87 in 1.5 mi Calm Calm - N/A   Overcast
1:35 AM 53.6 °F 53.6 °F 100% 29.87 in 1.5 mi Calm Calm - N/A   Overcast
1:55 AM 53.6 °F 53.6 °F 100% 29.86 in 1.5 mi Calm Calm - N/A   Overcast
2:15 AM 53.6 °F 53.6 °F 100% 29.86 in 1.8 mi Calm Calm - N/A   Overcast
2:35 AM 53.6 °F 53.6 °F 100% 29.87 in 1.2 mi Calm Calm - N/A   Overcast
2:55 AM 53.6 °F 53.6 °F 100% 29.87 in 2.0 mi Calm Calm - N/A   Overcast
3:15 AM 53.6 °F 53.6 °F 100% 29.88 in 2.0 mi Calm Calm - N/A   Overcast
3:35 AM 53.6 °F 53.6 °F 100% 29.89 in 1.8 mi Calm Calm - N/A   Overcast
3:55 AM 53.6 °F 53.6 °F 100% 29.88 in 2.0 mi Calm Calm - N/A   Overcast
4:15 AM 53.6 °F 53.6 °F 100% 29.88 in 1.5 mi Calm Calm - N/A   Overcast
4:35 AM 55.4 °F 55.4 °F 100% 29.89 in 2.5 mi Calm Calm - N/A   Overcast
4:55 AM 55.4 °F 55.4 °F 100% 29.88 in 2.0 mi Calm Calm - N/A   Overcast
5:15 AM 53.6 °F 53.6 °F 100% 29.89 in 1.8 mi Calm Calm - N/A   Overcast
5:35 AM 55.4 °F 55.4 °F 100% 29.89 in 2.0 mi Calm Calm - N/A   Overcast
5:55 AM 53.6 °F 53.6 °F 100% 29.89 in 1.8 mi Calm Calm - N/A   Overcast
6:15 AM 53.6 °F 53.6 °F 100% 29.89 in 0.5 mi Calm Calm - N/A Fog Fog
6:35 AM 53.6 °F 53.6 °F 100% 29.89 in 2.5 mi South 5.8 mph - N/A   Overcast
6:55 AM 53.6 °F 53.6 °F 100% 29.91 in 1.2 mi WNW 3.5 mph - N/A   Overcast
7:15 AM 57.2 °F 57.2 °F 100% 29.91 in 3.0 mi WSW 3.5 mph - N/A   Overcast
7:35 AM 55.4 °F 55.4 °F 100% 29.92 in 2.0 mi Calm Calm - N/A   Overcast
7:55 AM 57.2 °F 57.2 °F 100% 29.93 in 3.0 mi SSW 5.8 mph - N/A   Overcast
8:15 AM 59.0 °F 59.0 °F 100% 29.93 in 5.0 mi West 3.5 mph - N/A   Overcast
8:35 AM 62.6 °F 62.6 °F 100% 29.94 in 5.0 mi WSW 4.6 mph - N/A   Overcast
8:55 AM 64.4 °F 64.4 °F 100% 29.94 in 8.0 mi SW 4.6 mph - N/A   Overcast
9:15 AM 64.4 °F 62.6 °F 94% 29.94 in 9.0 mi South 6.9 mph - N/A   Overcast
9:35 AM 66.2 °F 62.6 °F 88% 29.94 in 10.0 mi SSW 8.1 mph - N/A   Overcast
9:55 AM 66.2 °F 62.6 °F 88% 29.94 in 10.0 mi South 11.5 mph - N/A   Overcast
10:15 AM 68.0 °F 62.6 °F 83% 29.94 in 10.0 mi SSW 11.5 mph 19.6 mph N/A   Overcast
10:35 AM 68.0 °F 62.6 °F 83% 29.93 in 10.0 mi SSW 10.4 mph 17.3 mph N/A   Overcast
10:55 AM 68.0 °F 60.8 °F 78% 29.93 in 10.0 mi SSW 8.1 mph - N/A   Overcast
11:15 AM 68.0 °F 62.6 °F 83% 29.92 in 10.0 mi SW 8.1 mph - N/A   Mostly Cloudy
11:35 AM 68.0 °F 62.6 °F 83% 29.91 in 10.0 mi SW 6.9 mph - N/A   Mostly Cloudy
11:55 AM 69.8 °F 60.8 °F 73% 29.90 in 10.0 mi SW 5.8 mph - N/A   Mostly Cloudy
12:15 PM 71.6 °F 60.8 °F 69% 29.89 in 10.0 mi SW 8.1 mph 17.3 mph N/A   Scattered Clouds
12:35 PM 73.4 °F 60.8 °F 65% 29.87 in 10.0 mi SW 9.2 mph 21.9 mph N/A   Clear
12:55 PM 71.6 °F 59.0 °F 64% 29.87 in 10.0 mi SW 11.5 mph 23.0 mph N/A   Partly Cloudy
1:15 PM 73.4 °F 59.0 °F 61% 29.87 in 10.0 mi SW 11.5 mph 20.7 mph N/A   Scattered Clouds
1:35 PM 73.4 °F 59.0 °F 61% 29.87 in 10.0 mi SW 11.5 mph 19.6 mph N/A   Mostly Cloudy
1:55 PM 71.6 °F 59.0 °F 64% 29.87 in 10.0 mi SW 13.8 mph 17.3 mph N/A   Mostly Cloudy
2:15 PM 71.6 °F 59.0 °F 64% 29.88 in 10.0 mi WSW 6.9 mph - N/A   Overcast
2:35 PM 71.6 °F 59.0 °F 64% 29.88 in 10.0 mi SW 6.9 mph - N/A   Mostly Cloudy
2:55 PM 71.6 °F 59.0 °F 64% 29.88 in 10.0 mi SSW 4.6 mph - N/A   Mostly Cloudy
3:15 PM 71.6 °F 60.8 °F 69% 29.88 in 10.0 mi South 4.6 mph - N/A   Overcast
3:35 PM 71.6 °F 60.8 °F 69% 29.89 in 10.0 mi SSW 4.6 mph - N/A   Overcast
3:55 PM 71.6 °F 59.0 °F 64% 29.89 in 10.0 mi SW 5.8 mph - N/A   Overcast
4:15 PM 69.8 °F 59.0 °F 68% 29.90 in 10.0 mi SSW 4.6 mph - N/A   Overcast
4:35 PM 69.8 °F 59.0 °F 68% 29.90 in 10.0 mi SSW 4.6 mph - N/A   Overcast
4:55 PM 68.0 °F 60.8 °F 78% 29.91 in 10.0 mi SSW 6.9 mph - N/A   Overcast
5:15 PM 68.0 °F 60.8 °F 78% 29.91 in 9.0 mi SSW 4.6 mph - N/A   Overcast
5:35 PM 68.0 °F 60.8 °F 78% 29.92 in 10.0 mi SSW 4.6 mph - N/A   Mostly Cloudy
5:55 PM 68.0 °F 60.8 °F 78% 29.92 in 8.0 mi WSW 3.5 mph - N/A   Overcast
6:15 PM 68.0 °F 62.6 °F 83% 29.93 in 9.0 mi SW 4.6 mph - N/A   Overcast
6:35 PM 68.0 °F 62.6 °F 83% 29.93 in 9.0 mi SW 5.8 mph - N/A   Mostly Cloudy
6:55 PM 66.2 °F 62.6 °F 88% 29.94 in 8.0 mi SW 5.8 mph - N/A   Mostly Cloudy
7:15 PM 68.0 °F 62.6 °F 83% 29.94 in 9.0 mi SSW 9.2 mph - N/A   Mostly Cloudy
7:35 PM 68.0 °F 62.6 °F 83% 29.94 in 10.0 mi South 9.2 mph - N/A   Overcast
7:55 PM 68.0 °F 62.6 °F 83% 29.94 in 10.0 mi SSW 8.1 mph - N/A   Mostly Cloudy
8:15 PM 68.0 °F 62.6 °F 83% 29.95 in 10.0 mi SW 5.8 mph - N/A   Mostly Cloudy
8:35 PM 68.0 °F 62.6 °F 83% 29.95 in 10.0 mi SSW 9.2 mph - N/A   Mostly Cloudy
8:55 PM 68.0 °F 62.6 °F 83% 29.96 in 10.0 mi SSW 8.1 mph - N/A   Partly Cloudy
9:15 PM 66.2 °F 62.6 °F 88% 29.97 in 9.0 mi SSW 6.9 mph - N/A   Mostly Cloudy
9:35 PM 66.2 °F 62.6 °F 88% 29.97 in 10.0 mi SSW 9.2 mph - N/A   Overcast
9:55 PM 66.2 °F 62.6 °F 88% 29.98 in 10.0 mi SSW 5.8 mph - N/A   Overcast
10:15 PM 66.2 °F 62.6 °F 88% 29.98 in 10.0 mi SSW 6.9 mph - N/A   Mostly Cloudy
10:35 PM 66.2 °F 62.6 °F 88% 29.98 in 10.0 mi SSW 5.8 mph - N/A   Scattered Clouds
10:55 PM 66.2 °F 62.6 °F 88% 29.98 in 10.0 mi SSW 5.8 mph - N/A   Mostly Cloudy
11:15 PM 66.2 °F 62.6 °F 88% 29.99 in 10.0 mi SSW 5.8 mph - N/A   Overcast
11:35 PM 66.2 °F 64.4 °F 94% 29.98 in 10.0 mi SSW 11.5 mph - N/A   Overcast
11:55 PM 66.2 °F 64.4 °F 94% 29.99 in 10.0 mi SSW 5.8 mph - N/A   Overcast